Weather History for Grosse Ile, MI

Change the Weather History Date:

Saturday, July 27, 2013

  Actual Average (KDTW) Record (KDTW)
Temperature  
Mean Temperature 68 °F 74 °F  
Max Temperature 75 °F 83 °F 100 °F (1955)
Min Temperature 60 °F 64 °F 48 °F (1971)
Degree Days  
Heating Degree Days 0 0  
Month to date heating degree days 0  
Since 1 June heating degree days 35  
Since 1 July heating degree days 0  
Cooling Degree Days 2 9  
Month to date cooling degree days 240  
Year to date cooling degree days 455  
Since 1 June cooling degree days 407  
Growing Degree Days 18 (Base 50)    
Moisture  
Dew Point 62 °F    
Average Humidity 81    
Maximum Humidity 94    
Minimum Humidity 65    
Precipitation  
Precipitation 0.04 in 0.11 in 2.62 in (1896)
Month to date precipitation 2.90  
Year to date precipitation 18.96  
Snow  
Snow 0.00 in 0.00 in 0.00 in ()
Month to date snowfall 0.0  
Since 1 June snowfall 0.0  
Since 1 July snowfall 0.0  
Snow Depth -    
Sea Level Pressure  
Sea Level Pressure 29.83 in    
Wind  
Wind Speed 11 mph (SW)    
Max Wind Speed 20 mph    
Max Gust Speed 23 mph    
Visibility 10 miles    
Events Rain    
T = Trace of Precipitation, MM = Missing Value Source: NWS Daily Summary

Daily Weather History Graph

Daily Weather History Graph

Search for Another Location

Airport:

Trip Planner

Search our weather history database for the weather conditions in past years. The results will help you decide how hot, cold, wet, or windy it might be!

Date:

Astronomy

Jul. 27, 2013 Rise Set
Actual Time 6:21 AM EDT 8:56 PM EDT
Civil Twilight 5:48 AM EDT 9:28 PM EDT
Nautical Twilight 5:08 AM EDT 10:08 PM EDT
Astronomical Twilight 4:23 AM EDT 10:53 PM EDT
Moon 11:35 PM EDT (7/27) 12:07 PM EDT (7/27)
Length of Visible Light 15h 39m
Length of Day
14h 35m
Waning Gibbous, 71% of the Moon is Illuminated
Jul 27
Waning Gibbous
Jul 29
Last Quarter
Aug 6
New
Aug 14
First Quarter
Aug 20
Full

Hourly Weather History & Observations

Time (EDT) Temp. Dew Point Humidity Pressure Visibility Wind Dir Wind Speed Gust Speed Precip Events Conditions
12:14 AM 75.2 °F 62.6 °F 65% 29.91 in 10.0 mi South 13.8 mph - N/A   Overcast
12:35 AM 75.2 °F 62.6 °F 65% 29.91 in 10.0 mi South 16.1 mph - N/A   Overcast
12:54 AM 73.4 °F 62.6 °F 69% 29.90 in 10.0 mi SSW 13.8 mph - N/A   Overcast
1:14 AM 73.4 °F 62.6 °F 69% 29.89 in 10.0 mi SSW 9.2 mph - N/A   Overcast
1:35 AM 73.4 °F 60.8 °F 65% 29.89 in 10.0 mi SSW 10.4 mph 18.4 mph N/A Rain Light Rain
1:54 AM 73.4 °F 60.8 °F 65% 29.89 in 10.0 mi SW 11.5 mph 17.3 mph N/A   Overcast
2:14 AM 71.6 °F 60.8 °F 69% 29.89 in 10.0 mi WSW 10.4 mph - N/A   Overcast
2:34 AM 71.6 °F 60.8 °F 69% 29.89 in 10.0 mi West 6.9 mph - N/A   Overcast
2:54 AM 69.8 °F 60.8 °F 73% 29.88 in 10.0 mi West 4.6 mph - N/A   Overcast
3:14 AM 69.8 °F 62.6 °F 78% 29.88 in 10.0 mi West 4.6 mph - N/A Rain Light Rain
3:34 AM 68.0 °F 62.6 °F 83% 29.88 in 10.0 mi WNW 4.6 mph - N/A Rain Light Rain
3:54 AM 68.0 °F 62.6 °F 83% 29.88 in 10.0 mi West 3.5 mph - N/A   Overcast
4:14 AM 66.2 °F 62.6 °F 88% 29.88 in 10.0 mi Calm Calm - N/A   Overcast
4:34 AM 68.0 °F 62.6 °F 83% 29.88 in 10.0 mi SW 4.6 mph - N/A   Overcast
4:54 AM 68.0 °F 62.6 °F 83% 29.87 in 10.0 mi SSW 6.9 mph - N/A   Overcast
5:14 AM 68.0 °F 62.6 °F 83% 29.87 in 10.0 mi SSW 8.1 mph - N/A   Overcast
5:34 AM 68.0 °F 62.6 °F 83% 29.87 in 10.0 mi SSW 13.8 mph 17.3 mph N/A   Overcast
5:54 AM 66.2 °F 62.6 °F 88% 29.87 in 7.0 mi SSW 6.9 mph - N/A   Overcast
6:14 AM 68.0 °F 62.6 °F 83% 29.87 in 10.0 mi SSW 6.9 mph - N/A   Overcast
6:34 AM 69.8 °F 62.6 °F 78% 29.87 in 10.0 mi SSW 6.9 mph - N/A   Overcast
6:54 AM 69.8 °F 62.6 °F 78% 29.87 in 10.0 mi SSW 15.0 mph 19.6 mph N/A   Overcast
7:14 AM 69.8 °F 62.6 °F 78% 29.87 in 10.0 mi SSW 12.7 mph 18.4 mph N/A   Overcast
7:34 AM 69.8 °F 62.6 °F 78% 29.87 in 10.0 mi South 16.1 mph 19.6 mph N/A   Overcast
7:54 AM 69.8 °F 64.4 °F 83% 29.87 in 10.0 mi SSW 15.0 mph - N/A   Overcast
8:14 AM 69.8 °F 64.4 °F 83% 29.87 in 10.0 mi SSW 10.4 mph 21.9 mph N/A   Overcast
8:34 AM 68.0 °F 62.6 °F 83% 29.86 in 10.0 mi SSW 10.4 mph - N/A   Overcast
8:54 AM 68.0 °F 64.4 °F 88% 29.86 in 10.0 mi SSW 10.4 mph 16.1 mph N/A   Overcast
9:14 AM 68.0 °F 64.4 °F 88% 29.86 in 10.0 mi SSW 9.2 mph - N/A   Overcast
9:35 AM 68.0 °F 64.4 °F 88% 29.85 in 10.0 mi SSW 9.2 mph - N/A   Overcast
9:54 AM 68.0 °F 64.4 °F 88% 29.85 in 10.0 mi SSW 9.2 mph - N/A   Overcast
10:14 AM 68.0 °F 64.4 °F 88% 29.85 in 7.0 mi SSW 6.9 mph - N/A   Overcast
10:34 AM 68.0 °F 64.4 °F 88% 29.85 in 10.0 mi SSW 9.2 mph - N/A   Overcast
10:54 AM 69.8 °F 64.4 °F 83% 29.84 in 10.0 mi SW 8.1 mph - N/A   Overcast
11:15 AM 69.8 °F 64.4 °F 83% 29.84 in 7.0 mi SSW 9.2 mph - N/A   Overcast
11:34 AM 69.8 °F 64.4 °F 83% 29.83 in 10.0 mi SSW 6.9 mph - N/A   Overcast
11:54 AM 69.8 °F 64.4 °F 83% 29.83 in 7.0 mi SSW 9.2 mph - N/A   Overcast
12:14 PM 69.8 °F 64.4 °F 83% 29.82 in 10.0 mi South 16.1 mph 20.7 mph N/A   Overcast
12:34 PM 69.8 °F 64.4 °F 83% 29.82 in 10.0 mi South 17.3 mph - N/A   Light Drizzle
12:54 PM 69.8 °F 64.4 °F 83% 29.81 in 7.0 mi South 17.3 mph 23.0 mph N/A   Overcast
1:14 PM 68.0 °F 64.4 °F 88% 29.81 in 7.0 mi South 18.4 mph - N/A   Overcast
1:34 PM 68.0 °F 64.4 °F 88% 29.81 in 10.0 mi South 17.3 mph - N/A   Overcast
1:54 PM 66.2 °F 64.4 °F 94% 29.80 in 7.0 mi South 19.6 mph 23.0 mph N/A Rain Rain
2:14 PM 66.2 °F 64.4 °F 94% 29.79 in 10.0 mi SSW 12.7 mph 17.3 mph 0.03 in Rain Rain
2:34 PM 68.0 °F 64.4 °F 88% 29.78 in 10.0 mi South 17.3 mph - 0.03 in Rain Light Rain
2:54 PM 69.8 °F 64.4 °F 83% 29.79 in 10.0 mi South 15.0 mph - 0.03 in   Overcast
3:14 PM 69.8 °F 66.2 °F 88% 29.78 in 10.0 mi SSW 17.3 mph - N/A   Overcast
3:34 PM 69.8 °F 64.4 °F 83% 29.76 in 10.0 mi South 16.1 mph 19.6 mph N/A   Overcast
3:54 PM 71.6 °F 66.2 °F 83% 29.77 in 10.0 mi SSW 13.8 mph - N/A   Overcast
4:14 PM 71.6 °F 66.2 °F 83% 29.76 in 10.0 mi SSW 15.0 mph - N/A   Overcast
4:34 PM 71.6 °F 66.2 °F 83% 29.76 in 10.0 mi SW 10.4 mph - N/A   Overcast
4:55 PM 71.6 °F 66.2 °F 83% 29.75 in 7.0 mi SSW 9.2 mph - 0.01 in Rain Light Rain
5:14 PM 71.6 °F 66.2 °F 83% 29.74 in 10.0 mi South 10.4 mph - N/A Rain Light Rain
5:34 PM 73.4 °F 66.2 °F 78% 29.74 in 10.0 mi South 13.8 mph - N/A   Mostly Cloudy
5:54 PM 73.4 °F 64.4 °F 73% 29.74 in 10.0 mi South 12.7 mph - N/A   Scattered Clouds
6:14 PM 73.4 °F 64.4 °F 73% 29.73 in 10.0 mi SSW 13.8 mph - N/A   Scattered Clouds
6:34 PM 71.6 °F 64.4 °F 78% 29.74 in 10.0 mi SW 11.5 mph - N/A   Clear
6:54 PM 66.2 °F 62.6 °F 88% 29.74 in 10.0 mi West 6.9 mph 18.4 mph N/A Rain Light Rain
7:14 PM 68.0 °F 62.6 °F 83% 29.76 in 10.0 mi West 10.4 mph - N/A   Mostly Cloudy
7:34 PM 68.0 °F 62.6 °F 83% 29.77 in 10.0 mi WNW 10.4 mph - N/A   Mostly Cloudy
7:54 PM 68.0 °F 62.6 °F 83% 29.78 in 10.0 mi West 9.2 mph - N/A   Mostly Cloudy
8:14 PM 68.0 °F 62.6 °F 83% 29.79 in 10.0 mi WNW 11.5 mph 16.1 mph N/A   Mostly Cloudy
8:34 PM 66.2 °F 60.8 °F 83% 29.80 in 10.0 mi WNW 12.7 mph 17.3 mph N/A   Mostly Cloudy
8:54 PM 64.4 °F 59.0 °F 83% 29.81 in 10.0 mi WNW 11.5 mph 19.6 mph N/A   Scattered Clouds
9:14 PM 64.4 °F 57.2 °F 77% 29.82 in 10.0 mi WNW 12.7 mph 19.6 mph N/A   Mostly Cloudy
9:34 PM 64.4 °F 55.4 °F 73% 29.83 in 10.0 mi NW 9.2 mph - N/A   Overcast
9:54 PM 64.4 °F 55.4 °F 73% 29.83 in 10.0 mi WNW 10.4 mph - N/A   Overcast
10:14 PM 62.6 °F 55.4 °F 77% 29.84 in 10.0 mi WNW 10.4 mph - N/A   Mostly Cloudy
10:34 PM 62.6 °F 55.4 °F 77% 29.85 in 10.0 mi WNW 6.9 mph - N/A   Mostly Cloudy
10:54 PM 60.8 °F 55.4 °F 82% 29.85 in 10.0 mi West 9.2 mph - N/A   Scattered Clouds
11:14 PM 60.8 °F 53.6 °F 77% 29.85 in 10.0 mi West 5.8 mph - N/A   Scattered Clouds
11:34 PM 60.8 °F 53.6 °F 77% 29.85 in 10.0 mi West 6.9 mph - N/A   Scattered Clouds
11:54 PM 60.8 °F 53.6 °F 77% 29.85 in 10.0 mi West 5.8 mph - N/A   Mostly Cloudy